[[{"header":{"parameterUnit":"m.s-1","parameterCategory":1,"la1":30.2991,"la2":30.254,"lo1":-89.0895,"lo2":-89.0444,"dy":0.0017,"dx":0.0017,"nx":28,"ny":28,"refTime":"2025-07-28T21:00:00:Z","depth":0,"parameterNumber":2,"parameterNumberName":"U-component_of_WINDS"},"data":[0,0,0,0,0,0,0,0,0,0,0,0,0,0,0,0,0,0,0,0,0,0,0,0,0,0,0,0,0,0,0,0,0,0,0,0,0,0,0,0,0,0,0,0,0,0,0,0,0,0,0,0,0,0,0,0,0,0,0.6149,0.615,0,0.6178,0.6179,0.6179,0.6182,0.6182,0.6181,0.6181,0.6213,0.6214,0.6215,0,0,0,0,0,0,0,0,0,0,0,0,0,0.6099,0.61,0.6149,0.615,0.615,0.6178,0.6179,0.6179,0.6182,0.6182,0.6181,0.6181,0.6212,0.6214,0.6215,0,0,0,0,0,0,0,0,0,0,0,0,0,0.6124,0.61,0.6149,0.6155,0.6156,0.6178,0.6179,0.6179,0.6182,0.6182,0.6181,0.6181,0.6212,0.6214,0.6215,0.6235,0,0,0.622,0.6221,0,0,0,0,0,0,0,0,0.6122,0.6126,0.6154,0.6154,0.6155,0.6176,0.6173,0.6198,0.6182,0.6172,0.6181,0.618,0.6201,0.6204,0.621,0.6237,0.6238,0.6221,0.6222,0.6222,0.6223,0,0,0,0,0,0,0,0.6121,0.6124,0.6161,0.6154,0.6155,0.6157,0.616,0.6178,0.6189,0.6173,0.6173,0.6177,0.6201,0.6209,0.6211,0.6238,0.6221,0.6222,0.6223,0.6224,0.6284,0.6285,0,0,0,0,0,0,0.6118,0.6123,0.616,0.6162,0.6137,0.6158,0.6161,0.617,0.6189,0.6191,0.6177,0.6177,0.6206,0.6209,0.6212,0.6238,0.6222,0.6224,0.6225,0.6284,0.6284,0.6285,0,0,0,0,0,0,0.6116,0.6121,0.6159,0.6142,0.6147,0.6159,0.6169,0.6171,0.6178,0.6192,0.6194,0.6182,0.6206,0.621,0.623,0.6239,0.6225,0.6226,0.6283,0.6284,0.6285,0.6288,0,0,0,0,0,0,0.6115,0.612,0.6127,0.6143,0.6148,0.6175,0.6169,0.6172,0.618,0.618,0.6197,0.6199,0.6206,0.6227,0.6231,0.6241,0.6228,0.6282,0.6283,0.6284,0.6287,0.6289,0.629,0,0,0,0,0,0.6113,0.6127,0.6128,0.6132,0.6157,0.6175,0.6179,0.6185,0.6181,0.6189,0.6198,0.6199,0.6237,0.6229,0.6234,0.6244,0.6282,0.6283,0.6284,0.6286,0.6288,0.629,0,0,0,0,0,0,0.6113,0.6129,0.613,0.6149,0.6161,0.6176,0.6185,0.6187,0.6201,0.62,0.6208,0.6212,0.6232,0.624,0.6231,0.6265,0.6259,0.6261,0.6259,0.6261,0.6263,0.6261,0.6229,0,0,0,0,0,0.6115,0.6128,0.6142,0.6157,0.6163,0.6173,0.6181,0.6185,0.6198,0.6204,0.6214,0.6227,0.6242,0.6252,0.6267,0.6288,0.6293,0.6298,0.6299,0.6301,0.6303,0.6316,0.6319,0.6289,0.6289,0.6289,0,0,0.6119,0.613,0.6137,0.6157,0.6167,0.6181,0.6177,0.6192,0.6203,0.6206,0.6225,0.6234,0.6249,0.627,0.628,0.6278,0.6312,0.6302,0.6303,0.6305,0.6318,0.6321,0.6323,0.629,0.629,0.629,0,0,0.6135,0.6144,0.6158,0.6168,0.6183,0.6189,0.6193,0.6208,0.6214,0.6233,0.6236,0.625,0.6275,0.6287,0.6296,0.6317,0.6319,0.6322,0.633,0.6343,0.6346,0.6348,0.6357,0.636,0.6324,0.6324,0.6324,0,0.6139,0.6159,0.6165,0.618,0.619,0.6193,0.6208,0.6218,0.6237,0.6244,0.624,0.6273,0.6284,0.6308,0.6314,0.6321,0.6326,0.632,0.6345,0.6347,0.6349,0.6358,0.6361,0.6324,0.6324,0.6324,0.6324,0,0.6164,0.6178,0.6189,0.6207,0.6217,0.6232,0.6242,0.6252,0.6255,0.6263,0.6284,0.6297,0.6315,0.6321,0.6324,0.6346,0.6345,0.6343,0.6337,0.6352,0.636,0.6364,0.6324,0.6324,0.6324,0.6324,0,0,0.618,0.6201,0.6205,0.6214,0.6231,0.6243,0.6259,0.6276,0.6285,0.6298,0.6313,0.6335,0.6334,0.6344,0.6349,0.6361,0.6379,0.6358,0.6359,0.6362,0.6405,0.6407,0.641,0.638,0.638,0.6381,0.6404,0,0.6198,0.6226,0.6232,0.6256,0.6271,0.6275,0.6289,0.6301,0.6309,0.6324,0.6333,0.6349,0.6345,0.6352,0.6363,0.6374,0.6387,0.6372,0.6395,0.6395,0.6391,0.6414,0.6416,0.6437,0.6408,0.6408,0.6408,0,0.6222,0.6236,0.6262,0.6278,0.6284,0.6297,0.6314,0.6327,0.6342,0.6347,0.6359,0.6363,0.6382,0.6375,0.6401,0.6391,0.64,0.6407,0.6408,0.6411,0.6403,0.6419,0.6444,0.6448,0.6413,0.6413,0.6413,0,0.6233,0.6257,0.6276,0.6284,0.6303,0.6312,0.632,0.6335,0.6345,0.6361,0.6368,0.6385,0.6395,0.6408,0.6418,0.6412,0.6444,0.6437,0.645,0.645,0.6456,0.6456,0.6485,0.6461,0.6461,0.6461,0.6461,0,0.6252,0.6268,0.6281,0.6293,0.6311,0.6319,0.6338,0.6347,0.636,0.6374,0.6379,0.6392,0.6403,0.6419,0.6427,0.6448,0.6452,0.6458,0.646,0.6458,0.6457,0.6465,0.6464,0.6462,0.6462,0.6462,0.6462,0,0.6267,0.6276,0.6297,0.6314,0.6318,0.6331,0.6346,0.6358,0.6367,0.6385,0.639,0.6404,0.6422,0.6433,0.6456,0.6462,0.6486,0.6487,0.6481,0.6482,0.6494,0.6493,0.6529,0.6534,0.6506,0.6507,0.6507,0,0.6279,0.6291,0.631,0.6319,0.6328,0.6344,0.6354,0.6363,0.6374,0.6393,0.6404,0.6422,0.6438,0.6468,0.6481,0.6499,0.6501,0.6513,0.6504,0.6502,0.6503,0.6502,0.6504,0.6514,0.6514,0.6515,0.6515,0,0.6301,0.6305,0.6319,0.6336,0.6349,0.6363,0.6376,0.6385,0.6396,0.6409,0.6428,0.644,0.6464,0.6483,0.6503,0.6513,0.6517,0.6517,0.6521,0.652,0.6516,0.6519,0.6485,0.6517,0.6516,0.6516,0.6516,0.6516,0.6315,0.6327,0.6341,0.6358,0.637,0.6383,0.6395,0.6405,0.6421,0.6441,0.6446,0.6466,0.6483,0.651,0.652,0.6537,0.6535,0.6541,0.6542,0.6544,0.6545,0.6513,0.6541,0.6541,0.6541,0.6541,0.6541,0,0.6338,0.6347,0.6363,0.6382,0.6396,0.6397,0.6412,0.6424,0.6442,0.6456,0.6472,0.6494,0.6514,0.6528,0.6548,0.6559,0.6561,0.6564,0.6563,0.6566,0.6545,0.654,0.6562,0.6562,0.6562,0.6562,0.6562,0.6562,0.6351,0.6371,0.6377,0.6404,0.6414,0.6433,0.6442,0.6455,0.6467,0.6492,0.6507,0.6516,0.6532,0.6553,0.6571,0.6575,0.6582,0.6585,0.6589,0.657,0.6567,0.6565,0.6561,0.6586,0.6587,0.6609,0.6609,0.661]},{"header":{"parameterUnit":"m.s-1","parameterCategory":1,"la1":30.2991,"la2":30.254,"lo1":-89.0895,"lo2":-89.0444,"dy":0.0017,"dx":0.0017,"nx":28,"ny":28,"refTime":"2025-07-28T21:00:00:Z","depth":0,"parameterNumber":3,"parameterNumberName":"V-component_of_WINDS"},"data":[0,0,0,0,0,0,0,0,0,0,0,0,0,0,0,0,0,0,0,0,0,0,0,0,0,0,0,0,0,0,0,0,0,0,0,0,0,0,0,0,0,0,0,0,0,0,0,0,0,0,0,0,0,0,0,0,0,0,-2.678,-2.678,0,-2.677,-2.677,-2.677,-2.6821,-2.6822,-2.6823,-2.6825,-2.681,-2.6808,-2.6806,0,0,0,0,0,0,0,0,0,0,0,0,0,-2.6842,-2.6841,-2.678,-2.678,-2.678,-2.677,-2.677,-2.677,-2.682,-2.6822,-2.6824,-2.6826,-2.681,-2.6808,-2.6806,0,0,0,0,0,0,0,0,0,0,0,0,0,-2.6822,-2.684,-2.678,-2.6804,-2.6806,-2.677,-2.677,-2.6769,-2.682,-2.6822,-2.6824,-2.6826,-2.6811,-2.6808,-2.6806,-2.6744,0,0,-2.6797,-2.6796,0,0,0,0,0,0,0,0,-2.6823,-2.6819,-2.6801,-2.6803,-2.6805,-2.6799,-2.6786,-2.6761,-2.6819,-2.6815,-2.6825,-2.6828,-2.6804,-2.6802,-2.6795,-2.6743,-2.6743,-2.6797,-2.6795,-2.6794,-2.6793,0,0,0,0,0,0,0,-2.6824,-2.682,-2.6776,-2.6801,-2.6803,-2.6815,-2.6814,-2.6781,-2.6797,-2.6815,-2.6819,-2.6817,-2.6805,-2.6797,-2.6795,-2.6743,-2.6797,-2.6795,-2.6793,-2.6792,-2.6644,-2.6641,0,0,0,0,0,0,-2.6823,-2.6821,-2.6776,-2.6776,-2.682,-2.6812,-2.6811,-2.6798,-2.6797,-2.6799,-2.6815,-2.682,-2.6801,-2.6798,-2.6794,-2.6725,-2.6794,-2.6792,-2.679,-2.6646,-2.6643,-2.6641,0,0,0,0,0,0,-2.6824,-2.6818,-2.6777,-2.6799,-2.6795,-2.6808,-2.6793,-2.6797,-2.6789,-2.6797,-2.68,-2.6804,-2.6802,-2.6798,-2.6757,-2.6725,-2.6791,-2.6788,-2.6649,-2.6645,-2.6642,-2.6584,0,0,0,0,0,0,-2.6825,-2.6818,-2.6795,-2.6798,-2.6794,-2.674,-2.6791,-2.6795,-2.6785,-2.679,-2.6788,-2.679,-2.6804,-2.6761,-2.6755,-2.6723,-2.6786,-2.6652,-2.6647,-2.6643,-2.6589,-2.6579,-2.6571,0,0,0,0,0,-2.6827,-2.6778,-2.6794,-2.6788,-2.6765,-2.6738,-2.6735,-2.6754,-2.6782,-2.6759,-2.6765,-2.679,-2.673,-2.6757,-2.675,-2.6716,-2.6654,-2.6648,-2.6643,-2.6593,-2.6581,-2.6571,0,0,0,0,0,0,-2.6768,-2.6778,-2.6797,-2.6747,-2.6742,-2.6747,-2.6719,-2.674,-2.6726,-2.6731,-2.6754,-2.6753,-2.6709,-2.6708,-2.6738,-2.6659,-2.6696,-2.669,-2.6661,-2.6649,-2.664,-2.6642,-2.6784,0,0,0,0,0,-2.675,-2.6728,-2.6738,-2.6693,-2.6689,-2.6704,-2.6693,-2.6709,-2.6703,-2.6701,-2.6703,-2.6696,-2.6677,-2.6663,-2.6644,-2.6589,-2.659,-2.6563,-2.6554,-2.6546,-2.654,-2.6514,-2.6502,-2.6623,-2.6624,-2.6624,0,0,-2.671,-2.6713,-2.6698,-2.6681,-2.6679,-2.6656,-2.6702,-2.6674,-2.6658,-2.6696,-2.6659,-2.6661,-2.6654,-2.6607,-2.6586,-2.6605,-2.6507,-2.6539,-2.6533,-2.6532,-2.6507,-2.6496,-2.6486,-2.662,-2.6621,-2.6621,0,0,-2.6628,-2.6627,-2.6591,-2.6589,-2.6586,-2.6597,-2.6588,-2.6591,-2.6595,-2.6558,-2.6588,-2.6567,-2.6531,-2.6527,-2.652,-2.6439,-2.6462,-2.6432,-2.6384,-2.6358,-2.6349,-2.634,-2.6314,-2.6303,-2.6426,-2.6426,-2.6425,0,-2.6579,-2.6546,-2.6569,-2.6541,-2.6534,-2.657,-2.6534,-2.653,-2.6521,-2.6514,-2.6536,-2.6495,-2.6493,-2.6447,-2.6427,-2.6419,-2.6411,-2.6432,-2.6348,-2.634,-2.6333,-2.6308,-2.6297,-2.6422,-2.6423,-2.6423,-2.6423,0,-2.6487,-2.6464,-2.6436,-2.6429,-2.6418,-2.6385,-2.6404,-2.639,-2.6407,-2.6415,-2.6378,-2.6378,-2.6362,-2.6352,-2.6366,-2.6308,-2.632,-2.6345,-2.6384,-2.6318,-2.6294,-2.6285,-2.6417,-2.6418,-2.6419,-2.642,0,0,-2.6366,-2.6375,-2.6364,-2.6363,-2.6364,-2.6346,-2.6316,-2.6302,-2.6291,-2.6283,-2.6259,-2.623,-2.6254,-2.6246,-2.6261,-2.6238,-2.6177,-2.6266,-2.6266,-2.6251,-2.6115,-2.6098,-2.6086,-2.6192,-2.619,-2.6189,-2.6116,0,-2.6287,-2.6238,-2.6259,-2.6208,-2.6188,-2.6224,-2.6198,-2.6196,-2.6204,-2.6187,-2.6195,-2.6175,-2.6207,-2.6203,-2.6182,-2.6189,-2.615,-2.6194,-2.617,-2.6169,-2.6173,-2.6074,-2.6055,-2.5986,-2.6107,-2.6105,-2.6104,0,-2.6187,-2.618,-2.6127,-2.6135,-2.6128,-2.6104,-2.6095,-2.6079,-2.6077,-2.6085,-2.6078,-2.6098,-2.607,-2.6108,-2.607,-2.61,-2.6091,-2.6094,-2.6091,-2.6091,-2.6134,-2.6072,-2.5964,-2.5955,-2.609,-2.6091,-2.6092,0,-2.6107,-2.6083,-2.6049,-2.6047,-2.6054,-2.6037,-2.6039,-2.604,-2.6032,-2.6023,-2.6018,-2.6005,-2.5999,-2.5988,-2.6006,-2.6032,-2.5966,-2.6005,-2.5972,-2.5971,-2.5957,-2.5958,-2.5848,-2.5948,-2.5949,-2.5949,-2.5949,0,-2.6017,-2.5984,-2.6014,-2.5993,-2.5958,-2.5983,-2.5947,-2.5953,-2.5954,-2.5935,-2.5964,-2.5945,-2.5969,-2.5952,-2.5965,-2.5933,-2.5929,-2.5935,-2.5939,-2.5933,-2.5933,-2.5929,-2.5935,-2.5946,-2.5947,-2.5947,-2.5948,0,-2.5921,-2.594,-2.5906,-2.5917,-2.5919,-2.5893,-2.5902,-2.5884,-2.5894,-2.587,-2.5866,-2.5882,-2.5865,-2.5881,-2.5864,-2.5873,-2.5831,-2.584,-2.5832,-2.5835,-2.5802,-2.5806,-2.5688,-2.5674,-2.5781,-2.578,-2.5779,0,-2.5864,-2.584,-2.585,-2.5841,-2.5842,-2.5825,-2.5818,-2.5842,-2.5833,-2.5831,-2.5813,-2.5799,-2.5789,-2.576,-2.577,-2.5757,-2.5768,-2.5728,-2.5767,-2.5763,-2.577,-2.5773,-2.5771,-2.572,-2.5719,-2.5718,-2.5717,0,-2.576,-2.5772,-2.5761,-2.5754,-2.5745,-2.5739,-2.5736,-2.5727,-2.5751,-2.574,-2.5724,-2.5717,-2.5701,-2.5687,-2.5678,-2.568,-2.5703,-2.5705,-2.5697,-2.5692,-2.5689,-2.5692,-2.5812,-2.5708,-2.5708,-2.5709,-2.571,-2.571,-2.5683,-2.5665,-2.567,-2.5658,-2.5659,-2.5656,-2.5641,-2.5651,-2.5639,-2.5629,-2.5644,-2.5625,-2.5626,-2.5617,-2.5616,-2.5602,-2.5619,-2.5606,-2.5604,-2.5601,-2.5597,-2.569,-2.56,-2.56,-2.56,-2.56,-2.5601,0,-2.5584,-2.559,-2.5578,-2.5575,-2.5565,-2.559,-2.5588,-2.5579,-2.5562,-2.5562,-2.5553,-2.5536,-2.5523,-2.5533,-2.5523,-2.5509,-2.552,-2.5506,-2.5508,-2.5509,-2.5581,-2.559,-2.5498,-2.5498,-2.5498,-2.5498,-2.5498,-2.5498,-2.5531,-2.5503,-2.5515,-2.5487,-2.5493,-2.5477,-2.5474,-2.5472,-2.5473,-2.5453,-2.5444,-2.5451,-2.5456,-2.5446,-2.5436,-2.544,-2.5435,-2.5418,-2.5425,-2.5493,-2.5503,-2.5513,-2.5521,-2.5416,-2.5416,-2.5354,-2.5353,-2.5353]}]]